Location: Cluj-Napoca
(46.7712°N, 23.6236°E)
Time: 05:17:53
(UTC+02:00)

BlueWalker 3 - Visible Passes

Search period start: 07 December 2022 00:00
Search period end: 17 December 2022 00:00
Orbit: 501 x 518 km, 53.2° (Epoch: 06 December)

Date Brightness Start Highest point End Pass type
(mag) Time Alt. Az. Time Alt. Az. Time Alt. Az.
07 Dec 2.2 18:09:03 10° NW 18:12:52 50° NNE 18:14:16 32° ENE visible
07 Dec 4.6 19:47:50 10° WNW 19:49:07 19° W 19:49:07 19° W visible
08 Dec 2.2 17:50:38 10° NW 17:54:28 51° NNE 17:56:59 19° E visible
08 Dec 3.9 19:29:27 10° WNW 19:31:50 29° W 19:31:50 29° W visible
09 Dec 2.1 17:32:13 10° NW 17:36:04 53° NNE 17:39:52 10° E visible
09 Dec 3.3 19:11:04 10° WNW 19:14:39 35° SW 19:14:45 35° SW visible
10 Dec 2.1 17:13:48 10° WNW 17:17:40 55° NNE 17:21:30 10° ESE visible
10 Dec 3.5 18:52:40 10° WNW 18:56:13 33° SW 18:57:54 23° S visible
11 Dec 3.7 18:34:17 10° WNW 18:37:47 32° SW 18:41:15 10° SSE visible
12 Dec 3.9 18:15:54 10° WNW 18:19:20 30° SW 18:22:45 10° SSE visible
13 Dec 4.1 17:57:30 10° WNW 18:00:54 28° SW 18:04:15 10° SSE visible
14 Dec 4.3 17:39:07 10° WNW 17:42:26 27° SW 17:45:44 10° SSE visible
15 Dec 4.6 17:20:43 10° W 17:23:58 25° SW 17:27:12 10° SSE visible
